Tracking 19794 objects as of 21-Jul-2019
HD Live streaming from Space Station
objects crossing your sky now

FENGYUN 1C DEB

Track FENGYUN 1C DEB now!
10-day predictions


NORAD ID: 32343
Int'l Code: 1999-025CYL
Perigee: 730.8 km
Apogee: 961.4 km
Inclination: 98.7 °
Period: 101.7 minutes
Semi major axis: 7217 km
RCS: 0.0118 m2 (small)
Launch date: May 10, 1999
Source: People's Republic of China (PRC)
Launch site: Taiyaun Space Center, China (TSC)

Note: This is SATELLITE DEBRIS
aabbcc
Your satellite tracking list
Your tracking list is empty




NASA's NSSDC Master Catalog

Two Line Element Set (TLE):
1 32343U 99025CYL 19198.87856927  .00000012  00000-0  24437-4 0  9997
2 32343  98.6518 232.0699 0159773  24.6857 336.1858 14.15988759624697
Source of the keplerian elements: AFSPC